GW4718 Weather Reports


time (UTC)temp
C
wind
direction
speed
KPH
gust
KPH
rain 1hr
cm
rain 24hr
cm
rain mn
cm
humidity
%
barometer
mb
20260903171632 31 128 6.4 6.4 0.00 0.00 0.00 59 1021.9
20260903171128 31 212 6.4 16.1 0.00 0.00 0.00 57 1022.2
20260903170627 30 213 3.2 9.7 0.00 0.00 0.00 62 1022.3
20260903170123 30 320 0.0 3.2 0.00 0.00 0.00 60 1022.3
20260903165621 31 16 3.2 4.8 0.00 0.00 0.00 61 1022.2
20260903165115 32 269 0.0 4.8 0.00 0.00 0.00 57 1022.2
20260903164610 31 246 3.2 4.8 0.00 0.00 0.00 62 1022.3
20260903164107 31 284 3.2 4.8 0.00 0.00 0.00 61 1022.4
20260903163606 30 341 3.2 6.4 0.00 0.00 0.00 59 1022.5
20260903163102 30 239 3.2 4.8 0.00 0.00 0.00 65 1022.3
20260903162558 30 161 3.2 3.2 0.00 0.00 0.00 64 1022.5
20260903162054 31 242 3.2 4.8 0.00 0.00 0.00 60 1022.6
20260903161549 31 271 1.6 9.7 0.00 0.00 0.00 59 1022.4
20260903161045 31 124 4.8 14.5 0.00 0.00 0.00 59 1022.2
20260903160544 31 213 4.8 6.4 0.00 0.00 0.00 64 1022.6
20260903160039 31 190 6.4 11.3 0.00 0.00 0.00 59 1022.5
20260903155537 31 263 6.4 9.7 0.00 0.00 0.00 61 1022.7
20260903155033 31 207 3.2 9.7 0.00 0.00 0.00 62 1022.5
20260903154530 31 359 3.2 4.8 0.00 0.00 0.00 61 1022.5
20260903154026 30 264 4.8 9.7 0.00 0.00 0.00 64 1022.5
20260903153520 30 150 8.0 11.3 0.00 0.00 0.00 66 1022.3
20260903153016 30 194 1.6 9.7 0.00 0.00 0.00 62 1022.5
20260903152512 30 227 1.6 1.6 0.00 0.00 0.00 64 1022.6
20260903152008 30 79 1.6 3.2 0.00 0.00 0.00 70 1022.6
20260903151507 30 200 1.6 3.2 0.00 0.00 0.00 66 1022.7
20260903151002 29 216 1.6 6.4 0.00 0.00 0.00 74 1022.6
20260903150457 27 90 4.8 9.7 0.00 0.00 0.00 75 1022.6
20260903145952 28 82 4.8 6.4 0.00 0.00 0.00 76 1022.6
20260903145447 28 221 1.6 4.8 0.00 0.00 0.00 69 1022.4
20260903144942 28 278 3.2 4.8 0.00 0.00 0.00 76 1022.6
20260903144441 28 129 1.6 3.2 0.00 0.00 0.00 78 1022.5
20260903143937 28 95 0.0 3.2 0.00 0.00 0.00 78 1022.6
20260903143434 27 101 3.2 3.2 0.00 0.00 0.00 80 1022.5
20260903142929 27 23 0.0 0.0 0.00 0.00 0.00 80 1022.7
20260903142425 27 55 3.2 3.2 0.00 0.00 0.00 80 1022.7
20260903141921 27 67 0.0 1.6 0.00 0.00 0.00 82 1022.7
20260903141416 26 100 3.2 3.2 0.00 0.00 0.00 85 1022.6
20260903140912 26 275 0.0 1.6 0.00 0.00 0.00 86 1022.5
20260903140406 25 62 0.0 1.6 0.00 0.00 0.00 86 1022.8
20260903135901 25 58 0.0 0.0 0.00 0.00 0.00 88 1022.6
20260903135352 25 32 0.0 4.8 0.00 0.00 0.00 89 1022.5
20260903134850 25 77 1.6 3.2 0.00 0.00 0.00 89 1022.9
20260903134345 25 82 1.6 3.2 0.00 0.00 0.00 87 1022.9
20260903133843 26 15 0.0 0.0 0.00 0.00 0.00 84 1022.7
20260903133339 25 70 1.6 3.2 0.00 0.00 0.00 85 1022.8
20260903132834 26 245 0.0 0.0 0.00 0.00 0.00 83 1022.8
20260903132330 25 65 3.2 3.2 0.00 0.00 0.00 86 1022.9
20260903131825 25 169 0.0 0.0 0.00 0.00 0.00 86 1022.9
20260903131324 24 49 1.6 3.2 0.00 0.00 0.00 88 1023.0
20260903130823 24 240 1.6 3.2 0.00 0.00 0.00 87 1023.0
20260903130318 23 146 3.2 3.2 0.00 0.00 0.00 88 1022.8
20260903125817 24 197 3.2 4.8 0.00 0.00 0.00 90 1023.0
20260903125313 23 116 3.2 4.8 0.00 0.00 0.00 90 1023.2
20260903124812 23 207 1.6 3.2 0.00 0.00 0.00 93 1023.3
20260903124308 23 214 3.2 4.8 0.00 0.00 0.00 91 1023.1
20260903123806 22 223 0.0 3.2 0.00 0.00 0.00 92 1023.3
20260903123306 22 213 3.2 4.8 0.00 0.00 0.00 92 1023.4
20260903122804 22 214 1.6 4.8 0.00 0.00 0.00 92 1023.1
20260903122259 21 168 1.6 4.8 0.00 0.00 0.00 93 1023.2
20260903121757 21 189 0.0 0.0 0.00 0.00 0.00 96 1023.3
20260903121253 21 168 1.6 1.6 0.00 0.00 0.00 96 1023.4
20260903120749 20 238 0.0 3.2 0.00 0.00 0.00 97 1023.2
20260903120247 21 159 1.6 3.2 0.00 0.00 0.00 96 1023.0
20260903115747 20 106 0.0 0.0 0.00 0.00 0.00 96 1023.2
20260903115242 21 261 1.6 3.2 0.00 0.00 0.00 96 1023.2
20260903114741 20 105 1.6 1.6 0.00 0.00 0.00 97 1023.3
20260903114238 20 140 1.6 1.6 0.00 0.00 0.00 97 1023.3
20260903113732 20 109 0.0 3.2 0.00 0.00 0.00 96 1023.1
20260903113229 21 91 3.2 9.7 0.00 0.00 0.00 94 1023.1
20260903112724 20 118 0.0 3.2 0.00 0.00 0.00 96 1023.0
20260903112220 20 107 3.2 3.2 0.00 0.00 0.00 97 1022.9
20260903111719 20 351 0.0 3.2 0.00 0.00 0.00 97 1022.9
20260903111214 20 210 3.2 4.8 0.00 0.00 0.00 96 1022.8
20260903110710 20 235 1.6 4.8 0.00 0.00 0.00 97 1022.7
20260903110206 20 121 1.6 3.2 0.00 0.00 0.00 97 1022.6
20260903105705 20 245 3.2 4.8 0.00 0.00 0.00 96 1022.6
20260903105200 20 111 1.6 1.6 0.00 0.00 0.00 97 1022.6
20260903104700 20 343 0.0 0.0 0.00 0.00 0.00 96 1022.3
20260903104155 20 65 4.8 6.4 0.00 0.00 0.00 96 1022.5
20260903103651 20 280 0.0 1.6 0.00 0.00 0.00 95 1022.5
20260903103147 20 56 4.8 9.7 0.00 0.00 0.00 95 1022.3
20260903102642 20 235 0.0 3.2 0.00 0.00 0.00 96 1022.3
20260903102142 20 155 0.0 1.6 0.00 0.00 0.00 95 1022.2
20260903101641 21 100 0.0 3.2 0.00 0.00 0.00 94 1022.2
20260903101137 21 221 1.6 3.2 0.00 0.00 0.00 93 1022.1
20260903100632 20 109 4.8 6.4 0.00 0.00 0.00 94 1022.1
20260903100131 20 193 0.0 3.2 0.00 0.00 0.00 95 1021.9
20260903095629 20 226 4.8 6.4 0.00 0.00 0.00 95 1022.1
20260903095128 20 196 0.0 1.6 0.00 0.00 0.00 95 1021.9
20260903094623 21 173 1.6 3.2 0.00 0.00 0.00 94 1022.1
20260903094119 21 221 4.8 6.4 0.00 0.00 0.00 93 1021.8
20260903093614 20 71 6.4 6.4 0.00 0.00 0.00 96 1021.8
20260903093109 20 244 3.2 4.8 0.00 0.00 0.00 96 1021.8
20260903092608 20 249 1.6 3.2 0.00 0.00 0.00 97 1021.7
20260903092103 20 333 0.0 3.2 0.00 0.00 0.00 97 1021.9
20260903091601 20 62 1.6 3.2 0.00 0.00 0.00 96 1021.8
20260903091056 20 58 1.6 1.6 0.00 0.00 0.00 96 1021.7
20260903090552 20 42 0.0 0.0 0.00 0.00 0.00 97 1021.6
20260903090050 19 61 3.2 3.2 0.00 0.00 0.00 97 1021.6
20260903085544 20 52 1.6 1.6 0.00 0.00 0.00 97 1021.7
20260903085040 20 49 1.6 3.2 0.00 0.00 0.00 97 1021.6
20260903084538 20 175 0.0 3.2 0.00 0.00 0.00 96 1021.3
20260903084032 20 237 0.0 3.2 0.00 0.00 0.00 97 1021.7
20260903083528 20 331 3.2 3.2 0.00 0.00 0.00 96 1021.5
20260903083028 20 74 4.8 4.8 0.00 0.00 0.00 96 1021.4
20260903082522 20 283 3.2 4.8 0.00 0.00 0.00 94 1021.4
20260903082018 20 69 3.2 4.8 0.00 0.00 0.00 96 1021.4
20260903081514 20 47 1.6 6.4 0.00 0.00 0.00 95 1021.4
20260903081009 19 100 0.0 0.0 0.00 0.00 0.00 97 1021.4
20260903080505 19 332 0.0 0.0 0.00 0.00 0.00 97 1021.5
20260903080001 19 102 0.0 0.0 0.00 0.00 0.00 97 1021.5
20260903075455 20 275 0.0 0.0 0.00 0.00 0.00 97 1021.5
20260903074945 19 108 1.6 3.2 0.00 0.00 0.00 98 1021.7
20260903074444 20 294 0.0 1.6 0.00 0.00 0.00 97 1021.6
20260903073939 19 97 3.2 4.8 0.00 0.00 0.00 97 1021.6
20260903073434 19 56 3.2 4.8 0.00 0.00 0.00 97 1021.6
20260903072930 19 118 0.0 0.0 0.00 0.00 0.00 97 1021.5
20260903072426 20 263 0.0 0.0 0.00 0.00 0.00 96 1021.4
20260903071923 20 235 0.0 1.6 0.00 0.00 0.00 96 1021.5
20260903071418 20 78 3.2 3.2 0.00 0.00 0.00 96 1021.5
20260903070914 20 250 0.0 4.8 0.00 0.00 0.00 95 1021.8
20260903070408 20 35 4.8 4.8 0.00 0.00 0.00 96 1021.5
20260903065903 20 147 3.2 4.8 0.00 0.00 0.00 96 1021.7
20260903065402 20 206 3.2 4.8 0.00 0.00 0.00 97 1021.7
20260903064856 20 199 0.0 1.6 0.00 0.00 0.00 97 1021.7
20260903064352 20 190 3.2 6.4 0.00 0.00 0.00 97 1021.9
20260903063848 19 225 3.2 4.8 0.00 0.00 0.00 98 1022.1
20260903063342 19 258 1.6 4.8 0.00 0.00 0.00 99 1021.9
20260903062833 19 224 0.0 1.6 0.00 0.00 0.00 99 1022.1
20260903062332 19 131 0.0 0.0 0.00 0.00 0.00 99 1022.1
20260903061828 19 193 1.6 3.2 0.00 0.00 0.00 99 1022.2
20260903061327 19 144 0.0 1.6 0.00 0.00 0.00 99 1022.3
20260903060824 19 206 1.6 1.6 0.00 0.00 0.00 98 1022.5
20260903060322 20 201 0.0 1.6 0.00 0.00 0.00 97 1022.4
20260903055821 20 180 0.0 0.0 0.00 0.00 0.00 96 1022.6
20260903055314 20 250 0.0 0.0 0.00 0.00 0.00 96 1022.3
20260903054809 20 117 1.6 6.4 0.00 0.00 0.00 95 1022.5
20260903054308 20 96 4.8 4.8 0.00 0.00 0.00 97 1022.4
20260903053805 20 74 0.0 0.0 0.00 0.00 0.00 98 1022.5
20260903053301 20 104 0.0 0.0 0.00 0.00 0.00 98 1022.2
20260903052755 20 51 0.0 0.0 0.00 0.00 0.00 98 1022.3
20260903052251 20 52 0.0 0.0 0.00 0.00 0.00 98 1022.3
20260903051746 20 80 0.0 0.0 0.00 0.00 0.00 98 1022.3
20260903051242 20 121 0.0 0.0 0.00 0.00 0.00 98 1022.2
20260903050737 20 85 1.6 3.2 0.00 0.00 0.00 98 1022.3
20260903050237 20 91 0.0 0.0 0.00 0.00 0.00 98 1022.2
20260903045732 20 68 0.0 0.0 0.00 0.00 0.00 98 1022.4
20260903045228 20 64 0.0 1.6 0.00 0.00 0.00 97 1022.3
20260903044723 20 99 0.0 0.0 0.00 0.00 0.00 97 1022.2
20260903044218 20 115 0.0 0.0 0.00 0.00 0.00 96 1022.4
20260903043715 20 123 0.0 0.0 0.00 0.00 0.00 96 1022.5
20260903043214 21 146 0.0 0.0 0.00 0.00 0.00 96 1022.4
20260903042714 21 147 0.0 0.0 0.00 0.00 0.00 95 1022.6
20260903042208 21 277 1.6 3.2 0.00 0.00 0.00 95 1022.5
20260903041705 20 122 0.0 0.0 0.00 0.00 0.00 96 1022.6
20260903041201 20 206 0.0 0.0 0.00 0.00 0.00 97 1022.5
20260903040700 20 71 0.0 0.0 0.00 0.00 0.00 97 1022.6
20260903040155 21 80 0.0 0.0 0.00 0.00 0.00 96 1022.4
20260903035651 21 89 0.0 0.0 0.00 0.00 0.00 96 1022.4
20260903035148 20 83 0.0 0.0 0.00 0.00 0.00 97 1022.4
20260903034647 20 51 0.0 0.0 0.00 0.00 0.00 97 1022.4
20260903034142 21 74 0.0 0.0 0.00 0.00 0.00 97 1022.5
20260903033638 21 292 0.0 0.0 0.00 0.00 0.00 96 1022.7
20260903033138 21 41 0.0 0.0 0.00 0.00 0.00 96 1022.7
20260903032633 21 80 0.0 0.0 0.00 0.00 0.00 96 1022.4
20260903032128 21 245 0.0 0.0 0.00 0.00 0.00 95 1022.3
20260903031624 21 89 0.0 0.0 0.00 0.00 0.00 94 1022.2
20260903031118 21 221 0.0 0.0 0.00 0.00 0.00 94 1022.5
20260903030614 22 236 0.0 0.0 0.00 0.00 0.00 93 1022.4
20260903030104 22 151 0.0 0.0 0.00 0.00 0.00 93 1022.4
20260903025559 22 210 0.0 1.6 0.00 0.00 0.00 92 1022.6
20260903025055 22 212 0.0 1.6 0.00 0.00 0.00 93 1022.6
20260903024555 22 214 0.0 3.2 0.00 0.00 0.00 93 1022.7
20260903024049 22 211 0.0 3.2 0.00 0.00 0.00 91 1022.5
20260903023545 22 159 1.6 4.8 0.00 0.00 0.00 91 1022.7
20260903023040 22 135 0.0 0.0 0.00 0.00 0.00 92 1022.8
20260903022539 22 269 0.0 0.0 0.00 0.00 0.00 92 1022.7
20260903022038 22 129 0.0 0.0 0.00 0.00 0.00 93 1022.4
20260903021533 22 238 0.0 0.0 0.00 0.00 0.00 92 1022.4
20260903021028 22 80 0.0 0.0 0.00 0.00 0.00 92 1022.5
20260903020524 23 304 0.0 0.0 0.00 0.00 0.00 90 1022.4
20260903020023 23 93 0.0 0.0 0.00 0.00 0.00 90 1022.5
20260903015519 22 144 0.0 0.0 0.00 0.00 0.00 91 1022.5
20260903015014 22 113 0.0 0.0 0.00 0.00 0.00 93 1022.6
20260903014513 22 83 0.0 0.0 0.00 0.00 0.00 92 1022.6
20260903014008 22 250 0.0 0.0 0.00 0.00 0.00 92 1022.6
20260903013503 22 89 0.0 0.0 0.00 0.00 0.00 92 1022.5
20260903013003 22 164 0.0 0.0 0.00 0.00 0.00 92 1022.4
20260903012501 22 59 0.0 0.0 0.00 0.00 0.00 91 1022.6
20260903012000 22 111 0.0 0.0 0.00 0.00 0.00 91 1022.7
20260903011455 22 127 0.0 0.0 0.00 0.00 0.00 93 1022.5
20260903010950 22 43 0.0 0.0 0.00 0.00 0.00 92 1022.5
20260903010445 23 118 0.0 0.0 0.00 0.00 0.00 91 1022.5
20260903005942 23 87 0.0 0.0 0.00 0.00 0.00 90 1022.8
20260903005433 23 86 0.0 0.0 0.00 0.00 0.00 89 1022.3
20260903004929 23 138 0.0 0.0 0.00 0.00 0.00 89 1022.4
20260903004423 23 216 0.0 0.0 0.00 0.00 0.00 88 1022.1
20260903003914 23 100 0.0 0.0 0.00 0.00 0.00 88 1022.1
20260903003414 23 126 0.0 0.0 0.00 0.00 0.00 88 1022.2
20260903002914 23 200 0.0 0.0 0.00 0.00 0.00 88 1022.2
20260903002409 23 121 0.0 0.0 0.00 0.00 0.00 89 1022.3
20260903001908 23 114 0.0 0.0 0.00 0.00 0.00 88 1022.1
20260903001403 24 87 0.0 1.6 0.00 0.00 0.00 88 1021.8
20260903000903 24 338 0.0 0.0 0.00 0.00 0.00 87 1021.9
20260903000358 24 161 0.0 0.0 0.00 0.00 0.00 87 1021.9
20260902235856 25 114 0.0 3.2 0.00 0.00 0.00 85 1021.8
20260902235352 25 119 0.0 0.0 0.00 0.00 0.00 87 1021.8
20260902234851 25 277 1.6 3.2 0.00 0.00 0.00 85 1021.7
20260902234351 25 114 1.6 3.2 0.00 0.00 0.00 86 1021.7
20260902233850 25 222 0.0 0.0 0.00 0.00 0.00 85 1021.9
20260902233344 25 123 0.0 0.0 0.00 0.00 0.00 84 1021.7
20260902232843 26 212 1.6 3.2 0.00 0.00 0.00 84 1021.9
20260902232338 26 107 1.6 3.2 0.00 0.00 0.00 81 1021.8
20260902231833 26 75 1.6 1.6 0.00 0.00 0.00 83 1021.8
20260902231328 26 208 0.0 3.2 0.00 0.00 0.00 79 1021.8
20260902230823 27 95 0.0 0.0 0.00 0.00 0.00 78 1021.8
20260902230322 27 219 0.0 1.6 0.00 0.00 0.00 76 1021.8
20260902225822 28 183 0.0 1.6 0.00 0.00 0.00 74 1021.7
20260902225317 30 272 1.6 3.2 0.00 0.00 0.00 62 1021.7
20260902224815 30 151 3.2 3.2 0.00 0.00 0.00 61 1021.8
20260902224310 30 152 3.2 4.8 0.00 0.00 0.00 61 1021.8
20260902223808 31 129 1.6 3.2 0.00 0.00 0.00 62 1021.9
20260902223307 31 59 3.2 9.7 0.00 0.00 0.00 58 1021.6
20260902222801 31 119 3.2 4.8 0.00 0.00 0.00 58 1021.5
20260902222300 31 84 4.8 6.4 0.00 0.00 0.00 58 1021.6
20260902221754 32 132 1.6 3.2 0.00 0.00 0.00 61 1021.6
20260902221254 32 280 1.6 4.8 0.00 0.00 0.00 57 1021.6
20260902220750 32 218 1.6 4.8 0.00 0.00 0.00 58 1021.5
20260902220249 33 183 1.6 1.6 0.00 0.00 0.00 56 1021.5
20260902215745 32 249 1.6 4.8 0.00 0.00 0.00 55 1021.5
20260902215240 32 244 1.6 3.2 0.00 0.00 0.00 54 1021.5
20260902214736 32 287 0.0 4.8 0.00 0.00 0.00 57 1021.4
20260902214234 33 247 3.2 4.8 0.00 0.00 0.00 52 1021.5
20260902213725 33 217 0.0 3.2 0.00 0.00 0.00 58 1021.4
20260902213224 32 67 0.0 3.2 0.00 0.00 0.00 56 1021.4
20260902212724 32 198 3.2 6.4 0.00 0.00 0.00 54 1021.6
20260902212220 33 244 4.8 11.3 0.00 0.00 0.00 55 1021.5
20260902211716 33 229 3.2 4.8 0.00 0.00 0.00 54 1021.6
20260902211211 32 179 3.2 4.8 0.00 0.00 0.00 58 1021.6
20260902210706 32 244 3.2 4.8 0.00 0.00 0.00 54 1021.4
20260902210202 32 206 4.8 6.4 0.00 0.00 0.00 57 1021.5
20260902205659 32 162 11.3 14.5 0.00 0.00 0.00 56 1021.7
20260902205154 32 196 4.8 11.3 0.00 0.00 0.00 58 1021.7
20260902204649 32 201 6.4 12.9 0.00 0.00 0.00 53 1021.7
20260902204144 32 212 3.2 11.3 0.00 0.00 0.00 53 1021.5
20260902203640 33 194 4.8 6.4 0.00 0.00 0.00 54 1021.5
20260902203139 32 229 1.6 4.8 0.00 0.00 0.00 54 1021.7
20260902202635 33 221 6.4 9.7 0.00 0.00 0.00 52 1021.6
20260902202131 33 172 3.2 6.4 0.00 0.00 0.00 56 1021.6
20260902201627 33 144 1.6 4.8 0.00 0.00 0.00 55 1021.5
20260902201121 33 173 11.3 12.9 0.00 0.00 0.00 52 1021.6
20260902200616 32 206 3.2 4.8 0.00 0.00 0.00 57 1021.6
20260902200112 31 187 0.0 3.2 0.00 0.00 0.00 59 1021.5
20260902195607 31 181 0.0 4.8 0.00 0.00 0.00 58 1021.5
20260902195106 32 178 3.2 4.8 0.00 0.00 0.00 56 1021.6
20260902194606 32 181 3.2 3.2 0.00 0.00 0.00 59 1021.7
20260902194101 32 255 3.2 4.8 0.00 0.00 0.00 54 1021.8
20260902193557 33 298 0.0 1.6 0.00 0.00 0.00 52 1021.7
20260902193056 32 76 3.2 3.2 0.00 0.00 0.00 60 1021.7
20260902192555 30 115 4.8 6.4 0.00 0.00 0.00 63 1021.8
20260902192054 31 112 4.8 6.4 0.00 0.00 0.00 63 1022.1
20260902191549 31 118 0.0 1.6 0.00 0.00 0.00 66 1021.8
20260902191043 32 250 0.0 3.2 0.00 0.00 0.00 52 1022.2
20260902190539 32 135 3.2 9.7 0.00 0.00 0.00 55 1021.8
20260902190034 33 227 4.8 11.3 0.00 0.00 0.00 52 1022.1
20260902185530 33 221 0.0 3.2 0.00 0.00 0.00 51 1022.3
20260902185026 32 137 3.2 6.4 0.00 0.00 0.00 53 1022.1
20260902184521 33 245 4.8 9.7 0.00 0.00 0.00 50 1022.1
20260902184016 33 166 0.0 1.6 0.00 0.00 0.00 50 1022.4
20260902183512 32 79 1.6 3.2 0.00 0.00 0.00 51 1022.3
20260902183009 33 222 4.8 4.8 0.00 0.00 0.00 56 1022.6
20260902182504 32 79 3.2 3.2 0.00 0.00 0.00 57 1022.6
20260902182000 32 125 0.0 3.2 0.00 0.00 0.00 57 1022.6
20260902181455 32 53 0.0 1.6 0.00 0.00 0.00 54 1022.6
20260902180950 32 179 0.0 3.2 0.00 0.00 0.00 56 1022.7
20260902180445 32 32 0.0 3.2 0.00 0.00 0.00 56 1022.7
20260902175941 31 337 3.2 4.8 0.00 0.00 0.00 55 1022.8
20260902175441 31 98 4.8 4.8 0.00 0.00 0.00 63 1022.9
20260902174937 33 101 0.0 3.2 0.00 0.00 0.00 55 1022.9
20260902174434 34 29 0.0 1.6 0.00 0.00 0.00 48 1022.8
20260902173929 34 195 0.0 3.2 0.00 0.00 0.00 51 1023.2
20260902173428 33 36 0.0 4.8 0.00 0.00 0.00 60 1023.0
20260902172924 33 54 4.8 4.8 0.00 0.00 0.00 53 1023.1
20260902172423 33 191 1.6 4.8 0.00 0.00 0.00 52 1023.1
20260902171918 32 162 3.2 3.2 0.00 0.00 0.00 51 1023.2